Regional Weather Roundup
Issued by NWS

Home | Current Version | Previous Version | Text Only | Print | Product List | Glossary On
Versions: 1 2 3 4 5 6 7 8 9 10 11 12 13 14 15 16 17 18 19 20 21 22 23 24 25 26 27 28 29 30 31 32 33 34 35 36 37 38 39 40 41 42 43 44 45 46 47 48 49 50
000
ASUS46 KSEW 300410
RWRWA

WASHINGTON REGIONAL WEATHER ROUNDUP
NATIONAL WEATHER SERVICE SEATTLE WA
900 PM PDT FRI AUG 29 2014

NOTE:"FAIR" INDICATES FEW OR NO CLOUDS BELOW 12,000 FEET WITH NO
SIGNIFICANT WEATHER AND/OR OBSTRUCTIONS TO VISIBILITY.

WAZ505-507>509-300500-
SEATTLE, TACOMA, EVERETT, AND VICINITY

CITY           SKY/WX    TMP DP  RH WIND       PRES   REMARKS
EVERETT        LGT RAIN  61  57  87 N3        29.96R FOG
BOEING FIELD   CLOUDY    69  54  58 S6        29.94R
RENTON         CLOUDY    69  57  65 S8        29.94R
SEATAC AIRPORT PTCLDY    65  54  67 SW10      29.96R
JBLM-MCCHORD   CLEAR     66  54  64 NW5       29.96R
PUYALLUP       NOT AVBL
JBLM-FT LEWIS  CLEAR     65  54  67 S6        29.95S
TACOMA NARROWS CLEAR     65  53  65 SW9       29.95R
$$

WAZ001-503-506-510-514-515-300500-
NORTH INTERIOR

CITY           SKY/WX    TMP DP  RH WIND       PRES   REMARKS
BELLINGHAM     PTCLDY    60  56  86 SE3       29.94R
FRIDAY HARBOR  CLEAR     56  53  90 SW5       29.96S
EASTSOUND      CLEAR     63  54  72 S8        29.92S
PORT ANGELES   CLEAR     58  53  84 W6        29.97R
NAS WHIDBEY    MOCLDY    60  52  74 CALM      29.96S
BURLINGTON     CLOUDY    63  57  82 CALM      29.96R
$$

WAZ020-022-039-040-504-511-512-300500-
SOUTHWEST INTERIOR

CITY           SKY/WX    TMP DP  RH WIND       PRES   REMARKS
SHELTON        CLEAR     62  54  74 SW12      29.93S
OLYMPIA        CLEAR     62  53  72 SW6       29.96S
CHEHALIS       FAIR      63  57  82 CALM      29.97R
KELSO          PTCLDY    66  54  63 CALM      30.01R
VANCOUVER      PTCLDY    70  55  59 N5        29.96R
SCAPPOOSE, OR  PTCLDY    68  57  68 N8        29.96R
PORTLAND, OR   MOCLDY    70  57  63 NW5       29.96R
$$

WAZ021-516-517-300500-
WASHINGTON COAST

CITY           SKY/WX    TMP DP  RH WIND       PRES   REMARKS
FORKS          MOCLDY    59  57  93 CALM      29.96F
HOQUIAM        CLOUDY    62  61  96 W3        29.98R
ASTORIA, OR    CLOUDY    59  58  96 SW8       29.98R
$$

WAZ019-023-024-040-518-519-300500-
CASCADE MOUNTAINS AND COLUMBIA GORGE

CITY           SKY/WX    TMP DP  RH WIND       PRES   REMARKS
STAMPEDE PASS  NOT AVBL
TROUTDALE, OR  PTCLDY    71  54  54 CALM      29.94R
THE DALLES, OR CLOUDY    72  50  45 W15G21    29.89R
$$

WAZ026-027-041>044-520-521-300500-
EAST SLOPES

CITY           SKY/WX    TMP DP  RH WIND       PRES   REMARKS
OMAK           MOCLDY    67  47  48 NW7       29.83R
WENATCHEE      CLOUDY    70  44  39 W14       29.86R
ELLENSBURG     CLOUDY    64  49  57 NW13      29.92S
YAKIMA         NOT AVBL
$$

WAZ028-034-035-300500-
COLUMBIA BASIN

CITY           SKY/WX    TMP DP  RH WIND       PRES   REMARKS
EPHRATA        MOCLDY    72  41  32 NW24G38   29.81S
MOSES LAKE     CLOUDY    71  43  36 W14       29.84R
PASCO          CLOUDY    72  49  44 NW20      29.84R
HERMISTON, OR  CLOUDY    73  50  44 SW12G18   29.86R
$$

WAZ036>038-300500-
NORTHEAST WASHINGTON

CITY           SKY/WX    TMP DP  RH WIND       PRES   REMARKS
SPOKANE GEIGER CLOUDY    69  41  36 W13       29.84R
SPOKANE FELTS  CLOUDY    73  40  30 W8        29.82R
FAIRCHILD AFB  CLOUDY    67  41  38 W14       29.85R
COEURDALENE,ID CLOUDY    66  45  45 SW7       29.82R
DEER PARK      CLOUDY    72  40  31 W8        29.82R
$$

WAZ029>033-300500-
SOUTHEAST WASHINGTON

CITY           SKY/WX    TMP DP  RH WIND       PRES   REMARKS
PULLMAN        CLOUDY    69  41  36 CALM      29.88R
LEWISTON, ID   CLOUDY    80  39  23 NW6       29.80R
WALLA WALLA    CLOUDY    74  45  35 SW10      29.88R
PENDLETON, OR  CLOUDY    71  46  40 W16       29.88R
$$



USA.gov is the U.S. government's official web portal to all federal, state and local government web resources and services.